Regional Weather Roundup
Issued by NWS

Home | Current Version | Previous Version | Text Only | Print | Product List | Glossary Off
Versions: 1 2 3 4 5 6 7 8 9 10 11 12 13 14 15 16 17 18 19 20 21 22 23 24 25 26 27 28 29 30 31 32 33 34 35 36 37 38 39 40 41 42 43 44 45 46 47 48 49 50

000
ASUS43 KLSX 300307
RWRMO

WEATHER SUMMARY FOR MISSOURI
NATIONAL WEATHER SERVICE SPRINGFIELD MO
1000 PM CDT WED JUL 29 2015

NOTE: "FAIR" INDICATES FEW OR NO CLOUDS BELOW 12,000 FEET WITH NO
       SIGNIFICANT WEATHER AND/OR OBSTRUCTIONS TO VISIBILITY.
       CURRENT SKY AND/OR WEATHER CONDITIONS ARE NOT AVAILABLE FOR
       CHILLICOTHE AND FARMINGTON.

MOZ001>031-035>038-043-044-053-054-300400-
...NORTHERN AND WESTERN MISSOURI...

CITY           SKY/WX    TMP DP  RH WIND       PRES   REMARKS
KANSAS CTY INT PTCLDY    74  65  73 NE5       30.16R
KANSAS C DTWN  CLEAR     76  66  71 N5        30.14R
LEE`S SUMMIT   CLEAR     75  65  70 E6        30.15S
ST JOSEPH      PTCLDY    71  68  90 CALM      30.15S
CHILLICOTHE      N/A     70  68  93 CALM      30.17R
KIRKSVILLE     LGT RAIN  67  64  90 CALM      30.15R

$$
MOZ066>068-077>081-088>096-101>105-300400-
...SOUTHWEST MISSOURI...

CITY           SKY/WX    TMP DP  RH WIND       PRES   REMARKS
SPRINGFIELD    MOCLDY    79  69  71 NE7       30.13R
JOPLIN         PTCLDY    79  71  76 NE6       30.12R

$$
MOZ032>034-039>042-045>050-055>058-069>072-300400-
...CENTRAL MISSOURI...

CITY           SKY/WX    TMP DP  RH WIND       PRES   REMARKS
COLUMBIA       CLEAR     74  64  71 N3        30.14R
JEFFERSON CITY CLEAR     75  65  70 CALM      30.12R
ROLLA          CLEAR     72  64  76 CALM      30.13R
SEDALIA        CLEAR     73  66  78 N5        30.16R
WHITEMAN AFB   CLEAR     73  65  76 NE1       30.14R
WARRENSBURG    CLEAR     72  64  78 CALM      30.15R
OSAGE BEACH    CLEAR     73  64  73 N5        30.14R

$$
MOZ051-052-059>065-300400-
...EAST CENTRAL MISSOURI...

CITY           SKY/WX    TMP DP  RH WIND       PRES   REMARKS
ST LOUIS INTL  PTCLDY    77  62  59 NW6       30.11R
SPIRIT OF STL  CLEAR     73  67  81 CALM      30.11R
ST CHARLES     CLEAR     74  61  63 N7        30.10R

$$
MOZ072>076-082>087-097>100-106>115-300400-
...SOUTH CENTRAL AND SOUTHEAST MISSOURI...

CITY           SKY/WX    TMP DP  RH WIND       PRES   REMARKS
CAPE GIRARDEAU NOT AVBL
FARMINGTON     PTCLDY    77  66  69 N7        30.15R
POPLAR BLUFF   MOCLDY    82  75  79 NW5       30.05R
WEST PLAINS    CLEAR     76  70  82 NE3       30.14R

$$



USA.gov is the U.S. government's official web portal to all federal, state and local government web resources and services.